Location: Asheville, NC
(35.6000°N, 82.5500°W)
Time: 19:33:36
(UTC-04:00)

DOVE 4 - Pass Details

Date: 30 July 2018
Orbit: 589 x 802 km, 97.7° (Epoch: 16 October)

Event Time Altitude Azimuth Distance (km) Brightness Sun altitude
Rises 05:25:36 0° 14° (NNE) 3,011 ? -13.5°
Reaches altitude 10° 05:27:54 10° 16° (NNE) 2,061 ? -13.1°
Maximum altitude 05:32:22 71° 101° (ESE) 661 ? -12.3°
Drops below altitude 10° 05:36:34 10° 186° (S) 1,946 ? -11.6°
Enters shadow 05:37:45 - 187° (S) 2,436 ? -11.4°
